Weather History for Erie, PA

Change the Weather History Date:

Thursday, May 23, 2013

  Actual Average Record
Temperature  
Mean Temperature 58 °F 60 °F  
Max Temperature 71 °F 69 °F 88 °F (1964)
Min Temperature 44 °F 51 °F 31 °F (1967)
Degree Days  
Heating Degree Days 7 7  
Month to date heating degree days 123 223  
Since 1 July heating degree days 5750 6042  
Cooling Degree Days 0 1  
Month to date cooling degree days 48 18  
Year to date cooling degree days 48 25  
Growing Degree Days 8 (Base 50)    
Moisture  
Dew Point 56 °F    
Average Humidity 83    
Maximum Humidity 93    
Minimum Humidity 73    
Precipitation  
Precipitation 0.55 in 0.11 in 1.89 in (2011)
Month to date precipitation 2.43 2.52  
Year to date precipitation 14.00 14.14  
Snow  
Snow 0.00 in 0.00 in - ()
Month to date snowfall 0.0 0.0  
Since 1 July snowfall 105.5 100.9  
Snow Depth 0.00 in    
Sea Level Pressure  
Sea Level Pressure 29.81 in    
Wind  
Wind Speed 11 mph (WSW)    
Max Wind Speed 20 mph    
Max Gust Speed 28 mph    
Visibility 6 miles    
Events Rain , Thunderstorm    
T = Trace of Precipitation, MM = Missing Value Source: NWS Daily Summary

Daily Weather History Graph

Daily Weather History Graph

Search for Another Location

Airport:

Trip Planner

Search our weather history database for the weather conditions in past years. The results will help you decide how hot, cold, wet, or windy it might be!

Date:

Astronomy

May. 23, 2013 Rise Set
Actual Time 5:52 AM EDT 8:42 PM EDT
Civil Twilight 5:19 AM EDT 9:15 PM EDT
Nautical Twilight 4:38 AM EDT 9:57 PM EDT
Astronomical Twilight 3:50 AM EDT 10:45 PM EDT
Moon 7:12 PM EDT (5/23) 4:38 AM EDT (5/23)
Length of Visible Light 15h 55m
Length of Day
14h 49m
Waxing Gibbous, 97% of the Moon is Illuminated
May 23
Waxing Gibbous
May 25
Full
May 31
Last Quarter
Jun 8
New
Jun 16
First Quarter

Hourly Weather History & Observations

Time (EDT) Temp. Windchill Dew Point Humidity Pressure Visibility Wind Dir Wind Speed Gust Speed Precip Events Conditions
12:51 AM 66.0 °F - 62.1 °F 87% 29.74 in 5.0 mi South 11.5 mph - 0.19 in Rain Heavy Rain
1:05 AM 66.2 °F - 60.8 °F 83% 29.75 in 8.0 mi South 11.5 mph - 0.03 in Rain , Thunderstorm Light Rain
1:20 AM 66.2 °F - 62.6 °F 88% 29.75 in 6.0 mi South 13.8 mph - 0.04 in Rain Light Rain
1:51 AM 64.9 °F - 61.0 °F 87% 29.72 in 10.0 mi South 11.5 mph - 0.06 in   Mostly Cloudy
2:51 AM 66.9 °F - 62.1 °F 84% 29.71 in 10.0 mi South 10.4 mph - N/A   Mostly Cloudy
3:51 AM 66.9 °F - 62.1 °F 84% 29.71 in 10.0 mi SSW 12.7 mph 19.6 mph 0.03 in   Mostly Cloudy
4:51 AM 66.9 °F - 63.0 °F 87% 29.73 in 10.0 mi SSW 8.1 mph - N/A   Overcast
5:06 AM 66.2 °F - 62.6 °F 88% 29.75 in 10.0 mi SW 6.9 mph - N/A   Overcast
5:14 AM 66.2 °F - 62.6 °F 88% 29.75 in 8.0 mi WSW 6.9 mph - 0.01 in Rain Light Rain
5:24 AM 66.2 °F - 62.6 °F 88% 29.74 in 10.0 mi SW 6.9 mph - 0.01 in Rain Light Rain
5:51 AM 66.0 °F - 62.1 °F 87% 29.73 in 10.0 mi SW 6.9 mph - 0.01 in   Overcast
6:12 AM 66.2 °F - 62.6 °F 88% 29.75 in 10.0 mi SW 6.9 mph - N/A   Overcast
6:22 AM 66.2 °F - 62.6 °F 88% 29.76 in 10.0 mi SW 8.1 mph - N/A   Mostly Cloudy
6:51 AM 66.0 °F - 62.1 °F 87% 29.75 in 10.0 mi SW 10.4 mph - N/A   Scattered Clouds
7:51 AM 66.0 °F - 62.1 °F 87% 29.77 in 10.0 mi SW 8.1 mph - N/A   Overcast
8:51 AM 66.9 °F - 62.1 °F 84% 29.77 in 10.0 mi SSW 10.4 mph - N/A   Overcast
9:51 AM 70.0 °F - 61.0 °F 73% 29.78 in 10.0 mi SW 11.5 mph - N/A   Mostly Cloudy
10:51 AM 66.9 °F - 57.9 °F 73% 29.78 in 10.0 mi West 8.1 mph - N/A   Mostly Cloudy
11:28 AM 64.4 °F - 59.0 °F 83% 29.80 in 1.8 mi West 13.8 mph - 0.03 in Rain Heavy Rain
11:38 AM 64.4 °F - 59.0 °F 83% 29.80 in 4.0 mi WSW 6.9 mph 16.1 mph 0.16 in Rain Light Rain
11:51 AM 63.0 °F - 60.1 °F 90% 29.80 in 4.0 mi SW 8.1 mph - 0.16 in Rain Light Rain
11:56 AM 62.6 °F - 60.8 °F 94% 29.81 in 1.8 mi SSW 10.4 mph - 0.03 in Rain Heavy Rain
12:03 PM 62.6 °F - 60.8 °F 94% 29.80 in 1.8 mi SW 6.9 mph - 0.07 in Rain Heavy Rain
12:09 PM 62.6 °F - 59.0 °F 88% 29.80 in 3.0 mi SW 8.1 mph - 0.08 in Rain Light Rain
12:51 PM 64.9 °F - 60.1 °F 84% 29.79 in 10.0 mi WSW 6.9 mph - 0.09 in   Mostly Cloudy
1:51 PM 64.0 °F - 59.0 °F 84% 29.78 in 5.0 mi West 9.2 mph - 0.00 in Rain Light Rain
2:28 PM 62.6 °F - 59.0 °F 88% 29.78 in 2.5 mi WSW 8.1 mph - 0.02 in Rain Rain
2:37 PM 62.6 °F - 59.0 °F 88% 29.78 in 4.0 mi West 5.8 mph - 0.02 in Rain Light Rain
2:51 PM 63.0 °F - 59.0 °F 87% 29.78 in 4.0 mi WNW 8.1 mph - 0.02 in   Overcast
3:04 PM 62.6 °F - 59.0 °F 88% 29.78 in 4.0 mi West 8.1 mph - N/A   Overcast
3:29 PM 60.8 °F - 57.2 °F 88% 29.79 in 2.5 mi WSW 6.9 mph - 0.00 in   Overcast
3:51 PM 59.0 °F - 57.0 °F 93% 29.79 in 1.8 mi WSW 5.8 mph - 0.01 in Rain Rain
4:06 PM 59.0 °F - 57.2 °F 94% 29.79 in 2.5 mi WSW 4.6 mph - 0.01 in Rain Light Rain
4:16 PM 57.2 °F - 55.4 °F 94% 29.79 in 3.0 mi West 6.9 mph - 0.02 in Rain Light Rain
4:32 PM 57.2 °F - 55.4 °F 94% 29.79 in 2.0 mi West 6.9 mph - 0.03 in Rain Rain
4:51 PM 57.0 °F - 55.9 °F 96% 29.80 in 4.0 mi West 9.2 mph - 0.08 in Rain Light Rain
5:51 PM 55.9 °F - 53.1 °F 90% 29.81 in 9.0 mi West 11.5 mph - 0.00 in   Overcast
6:31 PM 53.6 °F - 51.8 °F 94% 29.83 in 10.0 mi WSW 10.4 mph - N/A   Overcast
6:51 PM 54.0 °F - 51.1 °F 90% 29.83 in 10.0 mi WSW 8.1 mph - 0.00 in Rain Light Rain
7:51 PM 54.0 °F - 50.0 °F 86% 29.86 in 10.0 mi NW 11.5 mph - 0.00 in   Overcast
8:00 PM 53.6 °F - 48.2 °F 82% 29.86 in 9.0 mi NNW 13.8 mph - 0.00 in Rain Light Rain
8:10 PM 51.8 °F - 48.2 °F 88% 29.87 in 8.0 mi NNW 11.5 mph 18.4 mph 0.00 in Rain Light Rain
8:51 PM 50.0 °F - 48.0 °F 93% 29.89 in 3.0 mi North 16.1 mph 21.9 mph 0.02 in Rain Light Rain
9:13 PM 48.2 °F - 46.4 °F 93% 29.90 in 2.5 mi North 12.7 mph 19.6 mph 0.01 in Rain Rain
9:23 PM 48.2 °F - 46.4 °F 93% 29.91 in 3.0 mi North 11.5 mph - 0.02 in Rain Light Rain
9:51 PM 48.0 °F - 46.0 °F 93% 29.93 in 3.0 mi North 13.8 mph - 0.02 in Rain Light Rain
10:00 PM 46.4 °F 40.4 °F 44.6 °F 93% 29.94 in 2.0 mi North 13.8 mph 20.7 mph 0.02 in Rain Rain
10:27 PM 46.4 °F 40.1 °F 44.6 °F 93% 29.96 in 3.0 mi NNW 15.0 mph 20.7 mph 0.05 in   Overcast
10:41 PM 46.4 °F 41.5 °F 44.6 °F 93% 29.96 in 2.0 mi North 10.4 mph 20.7 mph 0.05 in Rain Rain
10:51 PM 46.0 °F 39.6 °F 44.1 °F 93% 29.97 in 2.5 mi North 15.0 mph 23.0 mph 0.07 in   Overcast
11:06 PM 44.6 °F 38.4 °F 42.8 °F 93% 29.97 in 3.0 mi North 12.7 mph 24.2 mph N/A   Overcast
11:51 PM 45.0 °F 37.4 °F 42.1 °F 90% 29.98 in 6.0 mi North 18.4 mph 27.6 mph 0.00 in Rain Light Rain